TimeAST,TemperatureF,Dew PointF,Humidity,Sea Level PressureIn,VisibilityMPH,Wind Direction,Wind SpeedMPH,Gust SpeedMPH,PrecipitationIn,Events,Conditions,WindDirDegrees,DateUTC
12:00 AM,75.2,62.6,65,29.86,5.0,NW,10.4,-,N/A,,Unknown,310,2013-03-06 21:00:00
1:00 AM,71.6,64.4,78,29.86,5.0,NW,13.8,-,N/A,,Unknown,310,2013-03-06 22:00:00
2:00 AM,71.6,62.6,73,29.89,5.0,NNW,17.3,-,N/A,,Unknown,330,2013-03-06 23:00:00
3:00 AM,69.8,59.0,68,29.89,5.0,NNW,17.3,-,N/A,,Unknown,330,2013-03-07 00:00:00
3:30 AM,69.8,60.8,73,29.89,5.6,NNW,18.4,-,N/A,,Unknown,330,2013-03-07 00:30:00
4:00 AM,69.8,59.0,68,29.89,5.6,NNW,18.4,-,N/A,,Unknown,330,2013-03-07 01:00:00
4:30 AM,69.8,57.2,64,29.92,5.6,NNW,20.7,-,N/A,,Unknown,330,2013-03-07 01:30:00
5:00 AM,69.8,55.4,60,29.92,-9999.0,NE,21.9,-,N/A,,Clear,40,2013-03-07 02:00:00
5:30 AM,69.8,53.6,56,29.95,-9999.0,NNW,18.4,-,N/A,,Clear,330,2013-03-07 02:30:00
6:00 AM,69.8,51.8,53,29.95,-9999.0,NNW,20.7,33.4,N/A,,Clear,330,2013-03-07 03:00:00
6:30 AM,69.8,51.8,53,29.98,-9999.0,NNW,23.0,-,N/A,,Clear,340,2013-03-07 03:30:00
7:00 AM,71.6,53.6,53,29.98,-9999.0,NNW,20.7,-,N/A,,Clear,340,2013-03-07 04:00:00
7:30 AM,71.6,51.8,50,30.01,-9999.0,NNW,21.9,-,N/A,,Clear,340,2013-03-07 04:30:00
8:00 AM,73.4,51.8,47,30.01,-9999.0,NNW,24.2,-,N/A,,Clear,340,2013-03-07 05:00:00
8:30 AM,73.4,51.8,47,30.04,4.3,NNW,23.0,-,N/A,,Unknown,340,2013-03-07 05:30:00
9:00 AM,74,53,36,30.05,3,NNW,24.2,,,,Blowing Sand,340,2013-03-07 06:00:00
9:00 AM,75.2,51.8,44,30.04,3.1,NNW,24.2,-,N/A,,Widespread Dust,340,2013-03-07 06:00:00
9:30 AM,75.2,53.6,47,30.04,3.1,NNW,25.3,-,N/A,,Widespread Dust,340,2013-03-07 06:30:00
10:00 AM,77.0,53.6,44,30.04,3.7,North,20.7,-,N/A,,Unknown,350,2013-03-07 07:00:00
10:30 AM,78.8,55.4,44,30.04,3.7,North,24.2,-,N/A,,Unknown,350,2013-03-07 07:30:00
11:00 AM,77.0,53.6,44,30.04,3.1,North,28.8,-,N/A,,Widespread Dust,350,2013-03-07 08:00:00
12:00 PM,77.0,50.0,39,30.04,3.1,NNW,26.5,-,N/A,,Widespread Dust,340,2013-03-07 09:00:00
12:30 PM,80.6,51.8,37,30.04,2.8,North,24.2,-,N/A,,Widespread Dust,360,2013-03-07 09:30:00
1:00 PM,78.8,51.8,39,30.01,2.8,NNW,24.2,-,N/A,,Widespread Dust,340,2013-03-07 10:00:00
1:30 PM,77.0,50.0,39,30.01,3.1,North,24.2,-,N/A,,Widespread Dust,350,2013-03-07 10:30:00
2:00 PM,77.0,50.0,39,30.01,3.1,North,25.3,-,N/A,,Widespread Dust,350,2013-03-07 11:00:00
2:30 PM,77.0,50.0,39,30.01,3.1,North,24.2,-,N/A,,Widespread Dust,350,2013-03-07 11:30:00
3:00 PM,76,49,27,30.02,4,North,23.0,,,,Blowing Sand,350,2013-03-07 12:00:00
3:00 PM,75.2,48.2,38,30.01,3.7,North,23.0,-,N/A,,Unknown,350,2013-03-07 12:00:00
3:30 PM,75.2,48.2,38,30.01,4.3,North,23.0,-,N/A,,Unknown,350,2013-03-07 12:30:00
4:00 PM,73.4,48.2,41,30.01,4.3,North,21.9,-,N/A,,Unknown,350,2013-03-07 13:00:00
4:30 PM,73.4,46.4,38,30.04,4.3,NNW,19.6,-,N/A,,Unknown,340,2013-03-07 13:30:00
5:00 PM,71.6,46.4,41,30.04,5.0,NNW,19.6,-,N/A,,Unknown,340,2013-03-07 14:00:00
5:30 PM,69.8,44.6,40,30.04,5.0,NNW,16.1,-,N/A,,Unknown,330,2013-03-07 14:30:00
6:00 PM,69.8,44.6,40,30.06,5.0,NNW,18.4,-,N/A,,Unknown,340,2013-03-07 15:00:00
6:30 PM,68.0,46.4,46,30.06,5.6,NNW,17.3,-,N/A,,Unknown,330,2013-03-07 15:30:00
7:00 PM,68.0,46.4,46,30.06,5.6,NNW,19.6,31.1,N/A,,Unknown,330,2013-03-07 16:00:00
7:30 PM,66.2,48.2,52,30.09,5.6,NNW,17.3,-,N/A,,Unknown,330,2013-03-07 16:30:00
8:00 PM,66.2,48.2,52,30.09,5.6,NNW,17.3,-,N/A,,Unknown,330,2013-03-07 17:00:00
8:30 PM,66.2,46.4,49,30.09,5.6,NNW,13.8,-,N/A,,Unknown,330,2013-03-07 17:30:00
9:00 PM,65,46,40,30.11,5,NW,13.8,,,,Widespread Dust,320,2013-03-07 18:00:00
9:00 PM,66.2,46.4,49,30.09,5.0,NW,13.8,-,N/A,,Unknown,320,2013-03-07 18:00:00
9:30 PM,64.4,46.4,52,30.09,5.0,NW,17.3,-,N/A,,Unknown,320,2013-03-07 18:30:00
10:00 PM,78.8,57.2,47,29.86,3.7,SW,5.8,-,N/A,,Unknown,230,2013-03-07 19:00:00
10:30 PM,64.4,42.8,45,30.09,4.3,NNW,15.0,-,N/A,,Unknown,330,2013-03-07 19:30:00
11:00 PM,64.4,42.8,45,30.09,4.3,NNW,15.0,-,N/A,,Unknown,330,2013-03-07 20:00:00
11:30 PM,64.4,41.0,42,30.09,3.7,NW,16.1,28.8,N/A,,Unknown,320,2013-03-07 20:30:00